Location: Newark
(54.4000°N, 32.4500°E)
Time: 17:59:35
(UTC+00:00)

ISS - Pass Details

Date: 23 January 2020
Orbit: 416 x 422 km, 51.6° (Epoch: 17 February)

Event Time Altitude Azimuth Distance (km) Brightness Sun altitude
Rises 16:35:52 0° 223° (SW) 2,370 0.8 -20.6°
Reaches altitude 10° 16:38:11 10° 210° (SSW) 1,507 -0.5 -20.9°
Enters shadow 16:40:01 21° 182° (S) 997 -1.8 -21.2°
